Theta_e
321 322 324 326 329 331 332 332 330 328 327 327 327 326 324 322 319 317 318 320 321 322 320 319 317 318 319 320 318 320 325 325
332 328 324 323 325 328 330 332 333 333 332 331 330 328 328 328 328 326 324 322 319 319 321 322 319 318 318 320 321 321 320 321
337 338 337 334 329 327 327 329 331 333 333 333 333 333 328 328 330 331 330 329 328 326 324 320 320 321 319 319 320 321 322 323
314 317 322 325 326 330 333 334 331 328 327 329 330 333 335 335 333 323 323 332 330 331 330 328 327 322 319 319 318 319 319 319
311 311 311 311 311 310 309 309 311 316 324 332 332 328 325 325 326 323 324 324 326 324 323 327 332 330 329 325 319 318 318 318
311 311 312 311 311 311 311 311 311 311 310 310 312 320 329 333 333 328 324 326 325 329 327 324 323 326 328 329 328 327 323 318
308 308 308 308 309 309 309 309 309 308 308 308 308 309 309 318 331 334 333 328 324 326 329 329 323 323 324 323 322 324 325 326
307 306 306 306 306 305 305 305 305 305 305 306 306 306 307 309 313 327 332 332 332 332 331 331 323 326 327 327 327 324 328 325
306 306 306 305 305 305 305 304 304 304 304 303 304 304 304 305 309 312 320 325 329 330 330 328 325 329 325 328 328 327 327 327
306 306 305 305 305 305 304 304 304 303 302 302 302 301 301 302 303 305 312 317 324 326 328 330 325 325 328 327 327 326 323 324
306 306 305 305 306 305 304 304 304 303 300 300 300 300 300 301 301 301 301 304 311 318 325 327 328 325 325 326 327 328 324 325
306 306 305 305 306 305 304 304 303 301 300 299 299 299 300 301 302 302 302 301 304 310 315 321 324 325 327 330 329 327 327 328
306 305 305 305 305 304 303 302 301 300 300 300 301 300 301 302 304 304 304 303 305 307 310 313 317 323 325 328 326 327 327 329
305 305 305 305 304 303 303 302 301 300 300 300 300 300 300 303 303 303 303 303 305 307 309 310 313 315 317 322 327 328 329 329
305 305 304 304 303 303 303 302 301 300 299 299 299 299 298 299 300 302 302 303 303 305 306 306 307 313 313 315 324 328 329 330
305 304 303 302 301 302 302 300 298 298 297 297 295 295 296 296 297 298 299 299 300 300 303 304 303 308 313 318 317 320 327 329
303 303 302 301 301 300 299 297 296 296 296 296 295 295 295 296 296 297 297 297 297 298 298 301 301 304 305 311 317 320 325 328
303 302 302 301 299 297 296 296 296 295 294 292 293 294 294 294 294 295 294 294 295 296 296 298 299 300 302 306 307 310 318 317
301 298 299 297 297 295 295 295 294 293 292 291 292 291 291 291 291 292 291 292 293 293 294 294 295 294 298 301 304 305 308 314
299 298 296 297 296 293 292 293 292 290 290 290 289 289 289 289 289 290 290 290 291 291 293 293 291 292 293 297 300 303 305 307
Wind_Speed
4 5 8 12 14 15 17 17 17 18 18 18 18 18 20 21 21 22 22 22 22 21 21 21 20 21 21 21 22 22 24 23
12 8 6 7 10 13 16 19 21 22 22 23 23 23 24 23 23 25 26 27 28 27 26 25 25 24 25 25 26 26 29 30
25 18 12 10 9 11 13 16 20 22 24 26 27 27 27 28 30 27 26 28 30 32 32 31 30 29 29 29 29 31 33 34
38 35 33 29 27 22 16 15 16 19 21 23 26 29 28 29 30 33 43 35 31 34 34 35 35 35 35 33 33 34 36 38
36 35 33 32 30 30 28 26 23 20 17 17 24 30 33 34 35 37 40 42 45 45 41 38 37 38 38 37 37 37 38 41
33 31 30 30 28 27 25 24 25 25 24 20 19 18 22 29 38 41 41 43 45 37 38 38 41 40 39 39 39 39 40 42
30 29 29 28 27 26 26 26 26 25 24 24 22 19 19 20 21 22 33 41 46 47 44 42 34 35 37 38 38 39 41 43
31 32 31 30 31 31 30 28 27 26 25 24 23 24 23 21 20 20 22 23 33 43 47 43 45 49 50 49 43 39 40 43
33 31 31 33 34 35 33 31 30 30 29 27 23 23 24 26 24 22 21 22 22 25 30 33 46 49 49 43 52 47 42 43
28 28 30 31 33 34 33 33 33 32 31 30 31 27 25 24 25 26 25 27 30 31 31 36 41 45 43 44 45 59 52 51
22 23 26 28 29 31 31 34 34 32 31 32 33 32 30 28 27 28 30 32 27 26 29 23 33 44 45 44 43 42 45 48
21 24 26 28 29 30 31 33 35 35 34 32 32 32 30 30 30 29 31 33 32 30 31 35 35 31 32 41 45 39 40 48
21 22 24 27 30 33 34 35 32 30 30 33 35 33 31 30 29 29 33 33 32 31 33 33 40 38 40 36 43 40 41 47
21 24 28 30 31 31 31 32 31 28 26 29 33 37 32 27 27 29 31 32 31 31 31 32 33 32 34 26 34 35 36 40
26 26 27 28 29 31 34 35 34 36 36 34 32 32 31 29 27 25 26 30 30 31 30 26 30 32 28 19 14 24 28 25
23 24 26 29 32 36 37 40 38 36 36 34 30 30 28 28 30 28 26 25 27 29 28 27 23 29 31 32 25 31 13 17
29 30 30 30 34 36 38 38 34 33 34 35 34 32 30 28 28 28 26 26 27 26 27 23 20 21 22 26 32 35 40 29
28 29 31 35 37 35 37 37 35 34 34 35 34 34 33 31 29 27 25 27 26 25 23 19 17 15 17 15 14 14 19 13
31 32 35 36 36 36 38 34 33 32 32 33 34 34 33 32 29 27 25 25 26 23 20 16 14 13 12 10 8 8 13 17
34 34 33 34 36 36 35 33 32 31 31 31 30 29 28 27 27 27 27 26 25 23 20 19 19 18 16 10 6 5 6 7
Wind_Direction
310 299 297 286 281 274 267 265 266 267 269 272 275 274 275 275 273 273 273 274 273 271 269 267 263 260 258 254 248 243 242 241
13 358 320 283 270 270 270 269 269 270 272 273 274 273 277 279 280 282 282 279 277 274 272 268 266 262 259 257 254 251 249 249
42 34 17 357 334 309 292 283 277 273 272 274 274 275 278 279 284 286 282 280 283 282 279 275 270 266 261 258 257 254 253 253
49 49 49 46 42 33 11 336 314 296 285 279 279 278 279 272 269 287 287 282 278 282 279 278 277 272 268 263 259 258 259 258
48 45 44 43 42 42 40 34 28 16 353 313 286 280 280 277 279 277 271 267 276 276 279 278 275 276 274 271 268 266 263 264
40 36 33 30 26 23 18 14 10 7 5 359 347 330 305 286 280 272 268 264 269 273 267 271 272 270 270 269 268 267 267 266
30 26 24 20 16 11 7 4 1 357 352 347 341 335 331 309 291 295 276 266 266 271 274 278 272 268 268 269 268 269 270 268
28 27 24 20 17 12 7 3 358 351 346 342 333 325 320 310 303 290 286 286 272 274 274 275 284 271 272 269 266 269 278 271
23 23 20 15 14 12 11 8 3 357 351 346 334 322 320 314 305 298 288 272 274 278 277 269 258 268 269 266 265 267 273 283
17 15 12 11 8 6 4 1 356 353 347 341 335 334 325 316 311 303 289 272 267 261 269 281 255 264 263 269 261 264 270 269
8 6 4 1 2 0 359 355 353 351 347 344 336 332 330 326 321 314 307 301 295 275 263 266 269 268 272 270 257 258 262 262
357 354 353 353 353 353 351 352 349 347 345 344 342 334 331 328 325 320 318 311 303 296 284 269 263 262 277 258 259 267 264 256
346 345 348 350 351 353 355 354 351 347 345 342 341 344 334 328 325 323 322 319 311 307 303 298 275 267 268 280 270 268 260 256
344 348 349 348 350 352 352 350 347 346 345 344 338 336 340 328 324 327 328 322 312 304 299 299 291 278 276 276 273 265 259 254
345 345 343 344 348 351 350 348 346 344 344 345 344 342 344 339 327 325 325 321 314 306 301 298 296 282 272 261 277 246 268 258
337 342 346 353 355 354 352 352 350 349 348 350 351 355 350 345 340 335 329 324 319 316 307 297 300 293 278 265 249 259 276 247
349 354 356 358 355 353 351 353 353 353 352 353 357 357 355 351 345 340 335 331 326 319 313 306 298 293 291 286 275 270 253 276
356 360 357 353 353 355 357 357 356 358 358 359 358 358 357 357 353 350 346 341 339 332 324 315 309 302 299 298 292 285 268 284
4 7 0 358 357 355 358 1 1 3 2 1 359 360 2 1 359 357 353 350 352 348 350 351 357 341 329 319 311 300 279 267
3 3 358 356 0 3 4 5 8 9 6 4 4 4 4 3 2 1 357 356 355 0 0 9 20 20 12 8 349 339 334 304